Location: Middlebury
(44.0153°N, 73.1678°W)
Time: 15:38:54
(UTC-04:00)

UWE-3 - Pass Details

Date: 27 June 2024
Orbit: 566 x 652 km, 97.8° (Epoch: 21 July)

Event Time Altitude Azimuth Distance (km) Brightness Sun altitude
Rises 03:16:58 0° 15° (NNE) 2,853 ? -15.3°
Reaches altitude 10° 03:19:11 10° 18° (NNE) 1,932 ? -15.1°
Maximum altitude 03:23:21 67° 101° (ESE) 632 ? -14.7°
Enters shadow 03:26:10 19° 182° (S) 1,384 ? -14.4°
